This is the latest recevied weather packets stored in our database for station/object KC0OOO-WX. If no packets are shown the sender has not sent any weather packets the latest 10 day(s).
| Time | Temp. | Humidity | Pressure | Rain* | Wind** | Luminosity | Snow |
|---|---|---|---|---|---|---|---|
| 1788146862 | 61° F | 70% | 771.4 mmHg | 0.03 in | - | - | - |
| 1788146232 | 62° F | 62% | 771.4 mmHg | 0 in | - | - | - |
| 1788145632 | 63° F | 59% | 770.9 mmHg | 0 in | - | - | - |
| 1788145032 | 64° F | 58% | 770.9 mmHg | 0 in | - | - | - |
| 1788144432 | 64° F | 58% | 770.6 mmHg | 0 in | - | - | - |
| 1788143832 | 65° F | 58% | 770.6 mmHg | 0 in | - | - | - |
| 1788143232 | 65° F | 57% | 770.2 mmHg | 0 in | - | - | - |
| 1788142632 | 65° F | 56% | 770.2 mmHg | 0 in | - | - | - |
| 1788142031 | 66° F | 56% | 770.2 mmHg | 0 in | - | - | - |
| 1788141431 | 66° F | 54% | 770.2 mmHg | 0 in | - | - | - |
| 1788140831 | 67° F | 51% | 769.9 mmHg | 0 in | - | - | - |
| 1788140231 | 67° F | 51% | 769.9 mmHg | 0 in | - | - | - |
| 1788139631 | 68° F | 50% | 770.2 mmHg | 0 in | - | - | - |
| 1788139031 | 69° F | 48% | 770.2 mmHg | 0 in | - | - | - |
| 1788138401 | 72° F | 44% | 769.6 mmHg | 0 in | - | - | - |
| 1788137801 | 76° F | 35% | 769.6 mmHg | 0 in | - | - | - |
| 1788137201 | 76° F | 34% | 769.6 mmHg | 0 in | - | - | - |
| 1788136601 | 77° F | 34% | 769.6 mmHg | 0 in | - | - | - |
| 1788136001 | 78° F | 33% | 769.6 mmHg | 0 in | - | - | - |
| 1788135401 | 78° F | 33% | 769.6 mmHg | 0 in | - | - | - |
| 1788134801 | 78° F | 32% | 769.6 mmHg | 0 in | - | - | - |
| 1788134171 | 78° F | 33% | 769.6 mmHg | 0 in | - | - | - |
| 1788133571 | 78° F | 33% | 769.6 mmHg | 0 in | - | - | - |
| 1788132971 | 78° F | 33% | 769.6 mmHg | 0 in | - | - | - |
| 1788132371 | 78° F | 33% | 769.3 mmHg | 0 in | - | - | - |
* Rain latest hour (hover to see other rain measurements)
** Current wind speed in m/s (hover to see current wind gust speed)